• In Österreich
  • Länderverzeichnis
  • Für 7 Tage
  • Wassertemperatur
  • Satellitenkarten
  • Wetterkarte
  • News
  • Widgets
  • user-avatar
    Anmelden

    Stündliche Wetter Wien

    Heute, 19 August, Samstag

    Zeit Temperatur Niederschläge Wind Luftdruck Luftfeuchtigkeit
    00:00 +25°C° 0 mm 3 m/S 742 mmHg 53%
    01:00 +25°C° 0 mm 5 m/S 743 mmHg 54%
    02:00 +23°C° 0,1 mm 5 m/S 743 mmHg 62%
    03:00 +22°C° 0,1 mm 4 m/S 743 mmHg 70%
    04:00 +21°C° 0,1 mm 4 m/S 743 mmHg 78%
    05:00 +21°C° 0 mm 4 m/S 744 mmHg 76%
    06:00 +21°C° 0 mm 4 m/S 744 mmHg 75%
    07:00 +21°C° 0 mm 4 m/S 744 mmHg 73%
    08:00 +21°C° 0,2 mm 4 m/S 744 mmHg 73%
    09:00 +21°C° 0,2 mm 4 m/S 745 mmHg 73%
    10:00 +21°C° 0,2 mm 5 m/S 745 mmHg 73%
    11:00 +20°C° 0,6 mm 5 m/S 745 mmHg 74%
    12:00 +20°C° 0,6 mm 5 m/S 745 mmHg 76%
    13:00 +19°C° 0,6 mm 5 m/S 745 mmHg 78%
    14:00 +19°C° 1,2 mm 4 m/S 746 mmHg 80%
    15:00 +18°C° 1,2 mm 4 m/S 746 mmHg 82%
    16:00 +18°C° 1,2 mm 4 m/S 746 mmHg 85%
    17:00 +18°C° 0,6 mm 4 m/S 746 mmHg 85%
    18:00 +17°C° 0,6 mm 4 m/S 746 mmHg 86%
    19:00 +17°C° 0,6 mm 3 m/S 745 mmHg 87%
    20:00 +17°C° 0,4 mm 4 m/S 746 mmHg 86%
    21:00 +17°C° 0,4 mm 4 m/S 746 mmHg 85%
    22:00 +17°C° 0,4 mm 4 m/S 746 mmHg 85%
    23:00 +15°C° 0 mm 4 m/S 746 mmHg 84%

    Morgen, 20 August, Sonntag

    Zeit Temperatur Niederschläge Wind Luftdruck Luftfeuchtigkeit
    00:00 +15°C° 0 mm 4 m/S 746 mmHg 83%
    01:00 +15°C° 0 mm 4 m/S 746 mmHg 83%
    02:00 +15°C° 0,2 mm 4 m/S 745 mmHg 84%
    03:00 +15°C° 0,2 mm 4 m/S 745 mmHg 84%
    04:00 +15°C° 0,2 mm 4 m/S 745 mmHg 85%
    05:00 +15°C° 0 mm 4 m/S 745 mmHg 82%
    06:00 +17°C° 0 mm 4 m/S 745 mmHg 80%
    07:00 +16°C° 0 mm 5 m/S 746 mmHg 78%
    08:00 +17°C° 0 mm 5 m/S 746 mmHg 72%
    09:00 +19°C° 0 mm 5 m/S 746 mmHg 66%
    10:00 +21°C° 0 mm 6 m/S 746 mmHg 60%
    11:00 +22°C° 0 mm 5 m/S 746 mmHg 53%
    12:00 +23°C° 0 mm 5 m/S 746 mmHg 47%
    13:00 +25°C° 0 mm 5 m/S 746 mmHg 41%
    14:00 +25°C° 0,1 mm 5 m/S 746 mmHg 42%
    15:00 +25°C° 0,1 mm 5 m/S 745 mmHg 42%
    16:00 +25°C° 0,1 mm 5 m/S 745 mmHg 43%
    17:00 +22°C° 0 mm 5 m/S 746 mmHg 49%
    18:00 +21°C° 0 mm 4 m/S 746 mmHg 56%
    19:00 +19°C° 0 mm 4 m/S 746 mmHg 62%
    20:00 +18°C° 0 mm 4 m/S 746 mmHg 65%
    21:00 +17°C° 0 mm 4 m/S 747 mmHg 67%
    22:00 +17°C° 0 mm 4 m/S 747 mmHg 70%
    23:00 +15°C° 0 mm 4 m/S 747 mmHg 70%

    übermorgen, 21 August, Montag

    Zeit Temperatur Niederschläge Wind Luftdruck Luftfeuchtigkeit
    00:00 +15°C° 0 mm 4 m/S 747 mmHg 70%
    01:00 +14°C° 0 mm 4 m/S 747 mmHg 70%
    02:00 +14°C° 0 mm 4 m/S 747 mmHg 71%
    03:00 +14°C° 0 mm 4 m/S 747 mmHg 72%
    04:00 +13°C° 0 mm 4 m/S 747 mmHg 73%
    05:00 +14°C° 0 mm 4 m/S 747 mmHg 71%
    06:00 +15°C° 0 mm 5 m/S 747 mmHg 68%
    07:00 +15°C° 0 mm 5 m/S 747 mmHg 65%
    08:00 +17°C° 0 mm 5 m/S 747 mmHg 60%
    09:00 +19°C° 0 mm 6 m/S 747 mmHg 55%
    10:00 +21°C° 0 mm 6 m/S 748 mmHg 50%
    11:00 +22°C° 0,1 mm 6 m/S 747 mmHg 48%
    12:00 +22°C° 0,1 mm 6 m/S 747 mmHg 46%
    13:00 +23°C° 0,1 mm 6 m/S 747 mmHg 44%
    14:00 +23°C° 0 mm 5 m/S 746 mmHg 44%
    15:00 +23°C° 0 mm 5 m/S 746 mmHg 44%
    16:00 +23°C° 0 mm 5 m/S 746 mmHg 45%
    17:00 +21°C° 0 mm 4 m/S 746 mmHg 50%
    18:00 +20°C° 0 mm 4 m/S 746 mmHg 55%
    19:00 +19°C° 0 mm 3 m/S 746 mmHg 60%
    20:00 +17°C° 0 mm 3 m/S 747 mmHg 64%
    21:00 +16°C° 0 mm 2 m/S 747 mmHg 68%
    22:00 +15°C° 0 mm 2 m/S 747 mmHg 72%
    23:00 +15°C° 0 mm 2 m/S 747 mmHg 73%

    22 August, Dienstag

    Zeit Temperatur Niederschläge Wind Luftdruck Luftfeuchtigkeit
    00:00 +15°C° 0 mm 2 m/S 747 mmHg 75%
    01:00 +13°C° 0 mm 3 m/S 747 mmHg 77%
    02:00 +13°C° 0 mm 3 m/S 747 mmHg 78%
    03:00 +13°C° 0 mm 3 m/S 747 mmHg 79%
    04:00 +12°C° 0 mm 3 m/S 747 mmHg 80%
    05:00 +13°C° 0 mm 3 m/S 747 mmHg 77%
    06:00 +14°C° 0 mm 3 m/S 747 mmHg 73%
    07:00 +15°C° 0 mm 4 m/S 747 mmHg 70%
    08:00 +18°C° 0 mm 4 m/S 747 mmHg 63%
    09:00 +20°C° 0 mm 4 m/S 747 mmHg 57%
    10:00 +21°C° 0 mm 4 m/S 747 mmHg 50%
    11:00 +22°C° 0 mm 3 m/S 747 mmHg 47%
    12:00 +24°C° 0 mm 3 m/S 746 mmHg 44%
    13:00 +25°C° 0 mm 3 m/S 746 mmHg 40%
    14:00 +25°C° 0 mm 3 m/S 745 mmHg 40%
    15:00 +25°C° 0 mm 3 m/S 745 mmHg 39%
    16:00 +25°C° 0 mm 3 m/S 745 mmHg 39%
    17:00 +23°C° 0 mm 2 m/S 745 mmHg 44%
    18:00 +21°C° 0 mm 2 m/S 745 mmHg 50%
    19:00 +20°C° 0 mm 1 m/S 745 mmHg 56%
    20:00 +19°C° 0 mm 1 m/S 745 mmHg 59%
    21:00 +18°C° 0 mm 1 m/S 745 mmHg 62%
    22:00 +16°C° 0 mm 1 m/S 745 mmHg 65%
    23:00 +16°C° 0 mm 1 m/S 745 mmHg 67%

    23 August, Mittwoch

    Zeit Temperatur Niederschläge Wind Luftdruck Luftfeuchtigkeit
    00:00 +15°C° 0 mm 1 m/S 745 mmHg 68%
    01:00 +15°C° 0 mm 1 m/S 745 mmHg 70%
    02:00 +15°C° 0 mm 1 m/S 744 mmHg 71%
    03:00 +13°C° 0 mm 0 m/S 744 mmHg 71%
    04:00 +13°C° 0 mm 0 m/S 744 mmHg 72%
    05:00 +15°C° 0 mm 1 m/S 744 mmHg 68%
    06:00 +16°C° 0 mm 1 m/S 744 mmHg 65%
    07:00 +19°C° 0 mm 1 m/S 744 mmHg 61%
    08:00 +21°C° 0 mm 1 m/S 745 mmHg 56%
    09:00 +22°C° 0 mm 1 m/S 745 mmHg 50%
    10:00 +24°C° 0 mm 1 m/S 745 mmHg 45%
    11:00 +26°C° 0 mm 1 m/S 744 mmHg 42%
    12:00 +27°C° 0 mm 2 m/S 744 mmHg 40%
    13:00 +28°C° 0 mm 2 m/S 744 mmHg 37%
    14:00 +28°C° 0 mm 2 m/S 744 mmHg 38%
    15:00 +28°C° 0 mm 2 m/S 744 mmHg 38%
    16:00 +28°C° 0 mm 2 m/S 743 mmHg 39%
    17:00 +27°C° 0 mm 2 m/S 743 mmHg 46%
    18:00 +25°C° 0 mm 1 m/S 744 mmHg 52%
    19:00 +23°C° 0 mm 1 m/S 744 mmHg 59%
    20:00 +22°C° 0 mm 1 m/S 744 mmHg 62%
    21:00 +21°C° 0 mm 1 m/S 744 mmHg 65%
    22:00 +20°C° 0 mm 1 m/S 744 mmHg 68%
    23:00 +20°C° 0 mm 1 m/S 744 mmHg 70%

    24 August, Donnerstag

    Zeit Temperatur Niederschläge Wind Luftdruck Luftfeuchtigkeit
    00:00 +19°C° 0 mm 1 m/S 744 mmHg 71%
    01:00 +17°C° 0 mm 0 m/S 744 mmHg 73%
    02:00 +19°C° 0 mm 1 m/S 744 mmHg 74%
    03:00 +18°C° 0 mm 1 m/S 744 mmHg 75%
    04:00 +18°C° 0 mm 1 m/S 744 mmHg 76%
    05:00 +19°C° 0 mm 1 m/S 744 mmHg 72%
    06:00 +20°C° 0 mm 1 m/S 745 mmHg 68%
    07:00 +21°C° 0 mm 1 m/S 745 mmHg 64%
    08:00 +23°C° 0 mm 1 m/S 745 mmHg 57%
    09:00 +26°C° 0 mm 2 m/S 745 mmHg 50%
    10:00 +28°C° 0 mm 2 m/S 745 mmHg 43%
    11:00 +30°C° 0 mm 2 m/S 745 mmHg 40%
    12:00 +31°C° 0 mm 2 m/S 744 mmHg 36%
    13:00 +34°C° 0 mm 3 m/S 744 mmHg 33%
    14:00 +34°C° 0 mm 2 m/S 744 mmHg 32%
    15:00 +34°C° 0 mm 2 m/S 744 mmHg 32%
    16:00 +35°C° 0 mm 2 m/S 743 mmHg 31%
    17:00 +31°C° 0,1 mm 2 m/S 743 mmHg 36%
    18:00 +29°C° 0,1 mm 2 m/S 743 mmHg 42%
    19:00 +27°C° 0,1 mm 2 m/S 743 mmHg 47%
    20:00 +26°C° 0,2 mm 2 m/S 743 mmHg 51%
    21:00 +25°C° 0,2 mm 2 m/S 744 mmHg 55%
    22:00 +24°C° 0,2 mm 2 m/S 744 mmHg 60%
    23:00 +23°C° 0 mm 1 m/S 744 mmHg 62%
    Mehr zeigen